Lid_Strength_Index
5 4 5 5 4 4 4 4 3 3 3 3 3 3 3 3 3 4 5 5 7 10 9 8 7 8 8 8 10 7 8 7 8 11 11 12 12 11 11 10 11 12 13 13 12 14 16 6 6 9 7 6 5 5
4 4 4 4 4 4 3 3 3 3 3 3 3 3 3 3 3 3 7 5 4 9 9 6 6 6 7 7 9 8 8 10 7 10 9 10 12 10 11 14 9 12 10 12 11 11 7 5 6 5 4 5 5 5
4 4 4 3 3 3 2 2 2 2 2 2 2 2 2 2 2 2 4 5 7 10 9 9 8 5 4 5 5 10 9 7 6 6 7 9 11 9 13 12 11 9 7 10 9 8 7 6 5 4 4 4 4 4
3 3 2 2 2 2 2 2 2 1 1 1 1 1 1 1 1 1 4 4 6 9 12 10 5 6 4 5 5 5 7 6 6 6 8 9 11 8 9 9 9 8 7 9 9 8 7 6 5 4 4 4 4 4
2 2 1 1 1 1 1 1 1 1 1 1 0 0 1 1 0 1 2 3 3 8 12 11 7 6 5 6 7 5 6 7 9 9 9 9 7 8 8 8 8 7 8 10 10 6 6 6 4 4 4 4 4 4
2 1 1 1 1 1 1 1 0 0 -0 -0 -0 -0 0 0 1 2 6 2 3 4 9 11 6 6 5 5 6 7 6 6 7 9 9 7 6 7 9 10 7 6 5 5 6 5 5 5 4 3 4 4 4 4
1 1 1 1 1 1 1 0 -0 -0 -0 -1 -1 -1 -0 0 1 4 6 2 2 3 8 10 9 6 5 5 5 7 6 7 7 7 7 7 7 6 8 10 6 5 5 4 4 4 6 5 5 4 4 4 5 4
1 1 1 1 1 0 0 -0 -1 -1 -1 -1 -1 -1 -1 -0 1 3 1 0 0 4 6 10 9 7 5 6 6 5 7 6 6 6 6 7 7 6 9 7 6 5 5 5 4 4 4 4 4 4 4 5 5 5
1 1 0 0 -0 -0 -0 -0 -1 -1 -1 -1 -1 -0 0 2 4 3 0 0 1 3 8 8 11 10 5 6 5 5 5 8 5 7 7 7 8 9 7 6 6 5 5 5 4 4 4 4 4 4 5 5 5 6
0 0 -0 -0 -0 -1 -1 -1 -1 -1 -1 -1 1 3 6 4 1 1 2 5 5 5 6 9 5 8 6 7 7 7 6 8 11 8 6 8 8 5 5 5 4 4 4 4 6 6 5 5 5 5 5 4 4 5
-0 -0 -0 -0 -1 -1 -1 -1 -1 -1 -1 2 4 5 2 1 1 4 7 8 8 9 6 7 7 8 5 9 9 6 9 8 11 9 9 10 10 7 4 4 4 3 3 4 3 3 3 3 4 4 4 4 4 5
-0 -0 -0 -1 -1 -1 -1 -1 -2 0 1 2 3 2 1 4 5 8 9 8 9 10 6 8 6 6 6 5 7 7 10 9 12 7 10 11 8 6 5 5 4 3 3 4 3 3 3 3 3 3 4 4 4 4
-0 -1 -1 -1 -1 -1 -1 -2 -1 -1 -0 1 3 5 6 7 10 11 12 10 10 7 6 6 8 6 5 5 7 8 11 12 7 11 12 9 7 6 5 5 4 4 3 3 3 3 3 3 3 3 4 4 4 5
-0 -1 -1 -1 -1 -1 -2 -2 -1 -0 2 5 8 11 9 10 9 9 9 9 7 6 6 7 8 8 6 8 7 11 9 9 13 14 12 7 6 6 5 4 4 5 4 4 3 3 3 4 4 3 3 4 4 5
-1 -0 -0 -0 -1 -1 -1 -1 -1 0 3 6 7 11 9 7 6 6 6 6 6 5 6 7 7 7 8 9 8 9 11 12 11 11 9 6 5 5 5 4 4 4 4 4 3 3 3 3 3 4 3 3 3 3
-0 0 0 -0 -0 -1 -1 0 1 1 3 6 7 9 6 8 7 6 6 7 4 5 5 6 9 10 10 9 11 11 11 12 9 7 6 5 5 5 5 4 4 4 4 4 3 3 3 3 3 3 4 3 3 3
-0 1 -0 -1 -1 -1 -0 2 2 5 6 7 7 5 7 7 7 6 6 6 3 5 9 9 11 12 8 11 12 9 10 8 6 6 4 5 5 5 4 4 4 3 3 3 3 3 3 2 2 4 5 4 3 2
1 0 -1 -0 0 1 1 2 4 6 8 6 7 6 6 6 7 6 5 4 5 6 7 9 7 11 12 13 10 8 6 5 5 5 5 4 4 3 3 4 3 3 3 3 3 3 3 3 3 3 4 4 3 3
0 -0 -1 -1 0 2 4 4 3 8 7 5 5 6 6 6 6 6 6 5 4 4 5 7 10 11 10 8 8 7 6 5 6 5 4 3 3 3 3 3 3 3 3 3 3 3 3 2 2 3 4 4 4 3
-0 -1 -0 -0 0 3 6 5 3 6 7 6 6 6 6 6 5 5 5 5 5 6 8 9 9 7 7 6 5 5 5 4 5 6 5 4 3 3 3 3 3 3 3 3 3 5 3 4 3 4 3 3 3 4
1 1 0 0 2 2 5 6 6 5 5 6 5 5 5 4 6 6 6 4 6 7 8 6 5 5 4 4 3 4 4 4 5 5 5 5 3 3 3 3 3 3 3 4 4 5 5 4 4 4 4 3 3 3
1 0 2 1 4 4 5 4 5 5 6 6 6 6 7 7 7 6 5 6 7 6 5 5 5 5 5 4 4 4 3 3 3 3 5 5 5 4 4 3 3 4 4 3 4 4 4 4 4 3 3 4 4 3
1 2 3 4 6 7 7 5 7 6 8 7 6 8 7 7 6 4 7 6 6 4 4 4 4 4 4 4 4 4 3 3 4 4 4 4 3 3 3 3 3 4 4 4 3 4 4 7 6 4 4 3 3 3
2 5 7 8 8 9 7 8 7 8 7 8 8 9 8 8 6 8 9 8 6 4 4 5 4 5 4 4 5 5 5 3 4 4 3 4 4 4 4 4 4 3 4 4 4 5 4 5 6 4 4 4 3 3
8 8 7 9 7 9 9 9 9 9 10 9 10 10 9 7 9 10 10 7 5 5 4 4 4 4 6 6 5 5 4 4 4 6 5 5 5 6 6 6 5 4 4 4 5 5 5 5 5 4 3 3 3 3
10 8 9 8 8 9 9 10 9 9 9 10 9 8 8 9 10 11 8 6 5 5 4 4 5 6 6 6 7 6 6 4 4 5 5 5 5 5 6 6 6 6 4 3 4 4 4 4 4 3 3 4 8 3
10 9 7 5 6 7 7 7 7 8 9 10 9 9 9 11 12 8 5 4 4 3 3 3 5 6 7 7 6 5 5 3 4 5 5 5 4 4 4 4 5 5 3 3 3 3 4 4 3 4 3 3 2 3
7 7 9 7 7 6 8 8 8 9 8 6 7 9 10 10 9 5 4 3 2 2 2 3 4 4 6 6 5 5 4 4 5 4 5 5 5 5 4 4 4 9 3 2 2 2 2 2 4 4 4 4 3 3
7 6 6 7 7 7 7 7 7 6 5 6 8 8 8 5 4 4 3 3 2 2 3 5 5 4 3 3 3 3 2 3 4 5 5 6 5 5 3 3 3 3 3 3 11 6 3 3 4 4 4 4 4 4
7 5 7 7 8 8 6 5 6 5 4 4 5 5 5 4 3 2 3 3 3 4 3 4 4 4 4 4 4 3 3 3 3 2 4 4 4 3 2 2 3 3 2 3 3 5 10 4 6 3 4 5 5 6
5 5 7 7 7 5 5 4 4 4 4 4 4 5 5 4 3 2 3 4 3 3 4 5 4 3 4 4 4 4 4 3 2 2 2 2 2 2 2 2 2 2 2 2 3 3 4 4 3 5 5 5 6 6
5 6 7 8 7 4 4 5 5 5 5 5 5 4 4 5 6 4 3 4 5 5 7 6 7 6 3 2 2 2 8 3 2 2 2 2 2 2 2 2 2 3 3 3 3 3 3 4 3 5 6 6 6 6
7 6 6 6 6 6 5 5 6 6 5 6 6 5 5 6 7 4 2 3 5 6 6 6 6 5 2 2 3 4 6 3 7 11 10 10 10 7 3 2 2 3 3 4 3 3 3 4 5 5 5 6 6 6